Regional Weather Roundup
Issued by NWS

Home | Current Version | Previous Version | Text Only | Print | Product List | Glossary Off
Versions: 1 2 3 4 5 6 7 8 9 10 11 12 13 14 15 16 17 18 19 20 21 22 23 24 25 26 27

000
ASUS45 KBOU 171307
RWRCO

WEATHER ROUNDUP FOR COLORADO
NATIONAL WEATHER SERVICE DENVER/BOULDER CO
700 AM MDT TUE OCT 17 2017

NOTE: "FAIR" INDICATES FEW OR NO CLOUDS BELOW 12000 FEET WITH NO
SIGNIFICANT WEATHER AND/OR OBSTRUCTIONS TO VISIBILITY.

COZ001>005-013-030-031-171400-
...NORTHWEST COLORADO...

CITY           SKY/WX    TMP DP  RH WIND       PRES   REMARKS
CRAIG          FAIR      19  13  77 W3        30.41S
HAYDEN         FAIR      28  13  53 SE6       30.42R WCI  22
MEEKER         FAIR      25  14  63 CALM      30.41S
RABBIT EARS PA FAIR      36   0  21 W6        30.52F
STEAMBOAT SPGS FAIR      26  12  55 CALM      30.42S
WALDEN         FAIR      21   9  58 SE8       30.44S WCI  12
$$

COZ006>008-011-171400-
...WEST CENTRAL VALLEYS...

CITY           SKY/WX    TMP DP  RH WIND       PRES   REMARKS
GRAND JUNCTION FAIR      35  13  40 E5        30.38R WCI  31
MONTROSE       FAIR      31  16  54 S9        30.43R WCI  23
EAGLE          FAIR      23  13  65 E3        30.50S
RIFLE          FAIR      27  15  61 CALM      30.43R
DELTA          FAIR      33  14  44 CALM      30.42S
NUCLA          FAIR      32   9  37 E6        30.44S WCI  26
$$

COZ017>023-064>068-171400-
...SOUTHWEST COLORADO...

CITY           SKY/WX    TMP DP  RH WIND       PRES   REMARKS
DURANGO        FAIR      23  13  65 NE6       30.41S WCI  16
CORTEZ         FAIR      24  15  68 CALM      30.40R
PAGOSA SPRINGS FAIR      30  13  49 CALM      30.46S
TELLURIDE      NOT AVBL
WOLF CREEK PAS NOT AVBL
$$

COZ009-010-012-014-032>034-037-058>063-171400-
...CENTRAL COLORADO...

CITY           SKY/WX    TMP DP  RH WIND       PRES   REMARKS
ASPEN          FAIR      25  10  53 SW6       30.45S WCI  18
BUENA VISTA    FAIR      29   7  40 N3        30.45S
COPPER MTN     FAIR      36 -13  12 W5        30.60S
BERTHOUD PASS  FAIR      28  18  64 NW24G35   30.58S WCI  14
COTTONWOOD PAS FAIR      46  -9   9 W10G17    30.50S
GUNNISON       FAIR      19  10  68 NE3       30.54R
KREMMLING      FAIR      21  16  79 CALM      30.50S
LEADVILLE      FAIR      23  -6  28 NE5       30.51R WCI  17
MONARCH PASS   FAIR      32  -4  21 W22       30.70R WCI  19
SALIDA         NOT AVBL
SUNLIGHT       FAIR      34  -4  19 SW9       30.59F WCI  26
WILKERSON PASS FAIR      37 -22   7 NW9       30.57S
$$

COZ069>075-171400-
...SAN LUIS VALLEY/SANGRE DE CRISTO MOUNTAINS...

CITY           SKY/WX    TMP DP  RH WIND       PRES   REMARKS
ALAMOSA        FAIR      19  14  81 SE5       30.44S WCI  12
DEL NORTE      FAIR      35  11  37 W17       30.47R WCI  25
LA VETA PASS   FAIR      36  12  38 MISG      30.60R
SAGUACHE       FAIR      32   9  37 N13       30.46S WCI  22
$$

COZ035-036-038>040-171400-
...NORTHERN COLORADO FRONT RANGE...

CITY           SKY/WX    TMP DP  RH WIND       PRES   REMARKS
DENVER INTL AP FAIR      45  11  25 SW12      30.25S
DMNS CITY PARK   N/A     43  13  29 SE7       30.26S
AURORA         PTCLDY    42  12  29 S10       30.27S
FRONT RANGE AP FAIR      36  21  55 S10G17    30.26S
ERIE MUNI ARPT FAIR      32  24  71 CALM      30.30S
BOULDER MUN AP FAIR      41  19  42 SW5       30.24F
CENTENNIAL     FAIR      38  13  35 S7        30.27F
BROOMFIELD     PTCLDY    46  14  27 CALM      30.26F
FORT COLLINS   FAIR      40  21  46 NE7       30.24F
LONGMONT       FAIR      32  23  69 CALM      30.27S
$$

COZ041-046-047-076>085-087-088-171400-
...PIKES PEAK/PALMER DIVIDE AND SOUTHERN FOOTHILLS...

CITY           SKY/WX    TMP DP  RH WIND       PRES   REMARKS
COLO. SPRINGS  FAIR      41  17  38 N7        30.31R
A. F. ACADEMY  FAIR      33  11  40 N13       30.31F WCI  23
SCHRIEVER AFB  FAIR      49  11  21 N7        30.30S
CHEYENNE MTN   FAIR      52   5  15 W7        30.28R
ELLICOTT       FAIR     N/A N/A N/A E12       30.28R
FALCON         FAIR      40  11  31 NW5       30.33F
FORT CARSON    FAIR      44  11  26 NW10      30.27S
LIMON          FAIR      25  21  85 NW3       30.26S
MONUMENT HILL  FAIR      34  12  40 SW7       30.34F WCI  28
CANON CITY     CLEAR     52   9  17 W14       30.27F
WALSENBURG     FAIR      50  10  20 SW8       30.29S
TRINIDAD       FAIR      39  18  42 W12       30.28S
$$

COZ042>045-048>051-090-091-171400-
...NORTHEAST COLORADO...

CITY           SKY/WX    TMP DP  RH WIND       PRES   REMARKS
GREELEY ARPT   FAIR      30  25  81 W3        30.25S
AKRON          FAIR      40  20  44 W15       30.22S
BURLINGTON     FAIR      36  27  69 W9        30.20S
WRAY           FAIR      32  28  86 W7        30.19F WCI  26
YUMA           NOT AVBL
STERLING       FAIR      30  27  86 S5        30.20F WCI  25
HOLYOKE        FAIR      41  28  60 W9        30.19S
FORT MORGAN    FAIR      30  24  79 W10       30.22F WCI  21
$$

COZ086-089-092>099-171400-
...SOUTHEAST COLORADO...

CITY           SKY/WX    TMP DP  RH WIND       PRES   REMARKS
PUEBLO         FAIR      35  20  54 W8        30.24R WCI  29
LA JUNTA       FAIR      41  25  53 W12       30.21S
LAMAR          FAIR      33  29  85 SW10      30.18R WCI  25
SPRINGFIELD      N/A     44  27  51 NW14      30.18R
$$




USA.gov is the U.S. government's official web portal to all federal, state and local government web resources and services.